Find Formosat-2

NORAD ID: 28254 Int'l Des: 2004-018 Owner: NSPT Country: TW operational
LEOCIRCULARRETROGRADESSO

現在のビュー

3D地球を読み込み中...

Formosat-2について

説明を読み込み中...

次回通過

Passes for default location (London). Set your location on the main map for personalized predictions.

高度履歴

Loading altitude history...

軌道要素

1 28254U 04018A 26150.82755431 -.00000131 00000-0 -58583-4 0 9993
2 28254 98.8466 118.8435 0002298 24.7614 34.5868 14.01266418126320
Epoch: May 30, 2026 • Age: 11 hours

現在のステータス

高度 901.5 km
速度 7.41 km/s
衛星直下点 71.80°N, 16.9°W
打ち上げ日 May 20, 2004
運用期間 22 years
タイプ other

技術仕様

分類 Payload
質量 764.00 kg
乾燥質量 714.00 kg
総質量 764.00 kg
長さ 4.00 m
直径 3.00 m
スパン 4.00 m
形状 Box
製造者 ASTT
バスタイプ Astrosat-500
フェーズステータス In Orbit
所有者/国 NSPT/TW

Most Searched